Location: Veytaux
(46.4185°N, 6.9320°E)
Time: 20:42:23
(UTC+00:00)

Cosmos 332 Rocket - Pass Details

Date: 27 May 2022
Orbit: 681 x 703 km, 74.0° (Epoch: 03 July)

Event Time Altitude Azimuth Distance (km) Brightness Sun altitude
Exits shadow 01:08:20 34° 234° (SW) 1,110 4.4 -18.7°
Maximum altitude 01:10:09 57° 295° (WNW) 808 4.1 -18.6°
Drops below altitude 10° 01:14:52 10° 14° (NNE) 2,133 7.5 -18.2°
Sets 01:17:14 0° 19° (NNE) 3,053 8.8 -18.1°
